Wind_Speed
15 13 13 12 10 10 9 9 9 9 10 10 10 10 10 10 10 9 7 4 4 5 6 6 5 3 2 2 3 10 8 13 11 11 16 14 12 13 10 12 16 17 16 17 17
19 19 18 17 15 14 13 11 11 10 10 11 11 10 11 12 13 10 6 6 6 7 5 6 6 3 2 2 3 6 8 11 15 12 13 13 16 14 15 17 17 18 18 18 13
21 21 21 20 20 19 17 17 15 13 12 11 12 13 12 14 15 11 8 8 6 6 5 6 6 3 5 4 2 3 6 11 11 15 16 17 19 18 19 19 20 20 21 16 15
19 19 20 21 21 21 21 20 18 17 15 14 14 14 16 16 18 13 12 10 7 8 8 9 5 5 6 5 3 1 4 8 8 18 19 21 21 20 21 21 21 21 23 18 13
23 22 21 20 19 20 22 23 22 20 18 18 17 15 15 17 19 15 15 13 11 10 11 9 5 5 6 4 3 4 2 5 14 18 20 20 21 18 20 22 20 17 18 19 16
21 24 24 23 22 20 20 23 23 22 21 20 19 18 17 20 18 16 15 14 14 13 12 8 5 4 5 3 2 4 1 5 11 18 21 21 19 19 18 17 17 16 16 19 19
16 17 18 21 25 24 23 21 22 24 23 22 21 20 21 24 15 16 15 15 14 14 13 7 3 4 4 6 6 5 6 6 10 17 19 19 19 19 17 14 14 15 17 18 19
17 17 17 17 18 22 25 24 22 22 24 24 23 22 23 18 18 18 16 16 15 15 12 9 5 5 7 6 7 8 13 10 8 14 15 13 14 17 18 17 14 13 15 16 16
20 20 19 19 18 19 20 25 26 23 22 24 25 25 22 19 22 22 18 16 16 17 13 10 10 9 9 10 8 8 14 6 5 9 8 7 11 12 13 19 17 12 14 15 14
21 21 21 21 20 19 19 19 25 25 23 23 24 25 22 20 23 20 19 19 16 18 16 13 13 12 11 11 11 14 11 8 5 3 5 4 8 12 14 16 15 14 13 14 13
22 23 23 23 22 21 20 19 19 24 26 24 24 24 22 21 25 22 20 17 14 17 20 15 16 15 13 12 15 16 12 8 6 1 2 4 6 9 12 13 14 15 12 11 12
22 23 23 25 23 22 20 19 19 20 26 26 24 24 23 22 25 23 20 18 16 17 20 18 19 19 18 14 21 16 12 11 11 9 7 3 4 5 8 10 15 13 11 9 9
23 23 23 24 22 21 20 20 19 18 21 25 25 26 23 22 25 22 20 16 16 17 17 21 23 23 22 20 22 17 17 13 13 13 12 9 2 1 6 6 9 11 8 7 9
22 22 22 22 20 19 20 20 19 17 18 23 25 25 23 23 26 23 20 21 19 18 18 26 25 24 23 28 23 21 22 13 12 15 13 7 5 2 5 5 5 8 8 7 9
22 23 23 22 19 19 19 20 19 17 17 22 26 24 23 24 26 23 21 23 20 19 21 28 30 29 29 29 24 23 20 16 15 17 16 9 9 2 6 9 8 7 8 6 8
21 23 21 20 19 19 19 20 19 18 19 21 24 24 24 27 26 24 24 25 24 25 24 31 31 31 29 30 24 24 16 18 21 22 21 11 6 6 13 12 5 8 11 10 8
20 22 22 20 19 19 20 21 21 22 21 22 22 24 26 29 27 25 24 26 27 27 27 30 32 25 35 28 28 22 21 22 24 25 20 10 6 5 12 11 10 9 14 14 5
21 22 22 20 20 19 20 21 22 22 21 20 23 22 25 29 28 27 26 27 28 27 28 32 32 28 37 26 22 25 26 24 25 24 17 13 7 5 10 13 15 12 17 21 10
21 22 22 21 21 20 21 20 23 22 20 21 24 23 25 28 27 28 27 27 28 28 32 33 29 37 33 26 23 17 28 28 26 22 18 14 7 9 14 22 16 13 14 11 4
22 22 22 22 21 22 23 23 23 23 21 23 24 24 25 26 26 27 27 28 29 31 33 34 35 36 31 26 21 21 18 18 20 18 17 16 9 13 18 18 11 11 8 3 3
24 22 22 23 20 19 20 22 24 23 23 24 22 23 24 26 25 24 25 26 28 33 37 37 36 37 32 29 22 20 21 19 17 16 13 13 8 14 13 15 14 6 1 3 6
25 24 23 22 19 20 23 25 26 23 25 25 22 24 27 27 26 26 26 26 26 34 36 39 38 38 31 25 21 22 16 15 17 13 13 16 9 13 15 14 9 7 4 11 22
27 25 23 24 22 23 22 25 23 21 26 27 25 27 28 27 23 24 26 28 32 33 37 38 38 36 32 29 23 17 16 12 12 14 15 16 14 13 15 4 11 6 11 17 17
27 25 24 25 24 25 25 25 28 26 28 27 27 27 24 22 24 23 24 28 30 33 32 32 35 31 25 22 20 21 18 16 14 17 19 18 15 13 17 6 2 11 14 13 15
27 25 25 25 25 25 25 27 33 31 31 28 27 26 27 27 23 22 23 24 31 36 39 40 35 32 26 20 18 18 15 16 18 18 19 18 17 10 16 15 9 15 9 7 13
25 25 25 25 26 25 24 28 38 35 34 28 28 28 27 25 23 22 22 20 24 29 37 40 38 28 28 22 20 19 20 22 21 22 23 24 23 20 18 17 14 15 12 16 22
24 25 25 26 27 24 24 29 42 38 37 30 28 26 25 25 24 25 19 20 20 21 33 36 30 28 29 26 22 23 22 25 26 28 29 28 24 17 16 16 16 17 15 21 18
Wind_Direction
237 238 240 244 248 250 247 240 236 234 231 228 225 227 231 236 233 229 231 224 211 210 201 210 215 182 176 111 66 73 84 92 100 84 64 43 33 42 45 35 35 41 41 37 27
247 245 244 244 246 246 248 246 240 236 234 230 228 229 230 234 230 237 226 230 221 223 224 219 230 198 204 158 97 90 112 103 99 84 68 50 40 31 41 37 33 26 35 32 34
251 252 252 250 247 246 243 241 241 238 237 235 233 230 229 232 237 247 229 244 242 236 236 242 250 227 202 181 170 86 100 115 105 98 75 58 49 46 49 38 28 19 11 11 12
251 251 252 252 249 246 246 243 241 239 235 237 236 233 232 237 243 252 237 247 241 238 234 241 261 243 211 183 205 236 136 124 115 86 72 61 65 51 54 42 29 16 15 21 13
250 252 252 253 252 249 247 244 241 239 237 233 234 233 234 239 244 245 243 246 238 235 237 243 263 254 234 189 212 273 247 121 110 93 75 62 59 57 51 38 32 21 11 11 15
250 251 252 252 252 251 250 247 245 241 239 236 234 233 232 233 243 243 247 239 237 232 236 249 265 248 240 224 231 264 262 114 122 91 74 62 58 61 29 29 30 14 3 2 5
246 248 251 251 249 248 247 247 245 243 242 240 237 234 234 241 247 244 245 242 236 229 232 237 224 218 212 222 236 272 179 127 119 102 87 68 61 48 26 11 19 4 5 7 8
243 247 250 251 252 249 246 245 245 243 241 240 240 239 239 239 236 236 240 238 235 229 234 226 190 202 207 203 241 274 184 163 129 101 98 79 60 48 33 19 27 5 3 11 13
248 249 250 251 252 253 251 245 244 242 241 238 237 239 240 235 236 238 230 231 234 234 239 221 179 181 195 203 249 233 192 186 146 134 115 93 64 53 26 29 32 15 4 12 22
250 249 250 253 253 252 252 251 243 241 241 240 236 238 236 235 237 238 239 240 241 238 235 211 180 177 194 201 229 207 180 183 150 121 126 119 71 66 38 34 28 11 14 20 27
254 254 252 252 251 251 252 251 248 240 237 235 235 235 235 229 236 236 234 235 242 245 237 202 184 178 201 202 213 201 191 194 163 175 281 145 94 70 45 29 23 12 21 23 36
260 259 258 253 250 250 251 251 251 245 236 233 233 230 229 228 234 233 229 234 241 246 238 190 177 187 194 221 194 201 189 209 218 227 261 274 128 71 44 22 10 2 16 11 24
260 260 258 254 252 251 250 250 249 247 239 231 231 230 226 224 235 233 229 218 227 234 234 186 179 185 195 198 195 198 197 215 237 254 272 286 214 61 17 14 9 358 1 1 346
260 258 253 254 257 251 245 247 245 247 241 236 232 231 224 223 229 230 226 217 218 220 213 187 186 188 202 190 199 198 208 221 238 252 275 296 328 351 3 1 1 341 341 346 340
258 257 254 254 256 248 243 243 244 247 242 233 228 228 221 223 228 223 214 215 213 209 202 185 187 193 202 190 195 196 216 226 233 251 282 313 340 10 25 341 341 332 335 327 327
256 256 253 251 246 242 238 241 242 242 238 233 227 224 220 220 220 223 212 211 207 205 195 197 195 203 197 194 194 203 212 229 240 262 281 288 327 5 8 349 335 310 328 318 314
252 253 252 247 241 241 239 237 237 237 236 232 228 224 218 218 215 216 214 213 213 209 195 196 204 206 190 197 200 209 218 235 246 266 276 289 300 338 340 332 316 300 307 302 294
248 249 249 242 241 238 235 232 232 236 237 233 227 223 220 220 215 209 210 212 213 204 197 196 203 201 193 199 215 210 226 242 253 264 267 266 255 285 324 351 327 298 293 283 276
246 246 248 242 238 232 230 228 233 236 234 230 227 220 218 222 214 210 207 208 212 206 199 195 197 193 190 201 212 216 226 242 256 260 255 272 272 265 309 322 313 298 302 294 264
244 243 243 241 239 235 228 223 229 233 231 229 225 221 217 216 213 211 206 206 207 200 195 194 189 192 194 206 217 218 230 242 257 265 265 268 285 286 300 330 307 280 313 14 281
244 239 238 238 242 225 210 218 223 229 224 219 215 216 212 212 206 204 200 197 201 192 192 193 193 192 197 207 215 225 239 247 255 261 257 279 320 315 300 314 315 306 77 311 3
243 238 233 232 222 205 206 216 219 221 216 214 206 201 203 202 196 189 182 178 186 190 192 195 194 193 202 213 226 229 237 244 250 254 256 276 316 325 320 297 284 237 242 337 328
242 237 231 227 216 203 207 221 224 222 214 213 205 202 198 192 179 168 170 177 175 184 190 198 199 198 203 217 231 241 226 230 236 248 258 279 312 315 302 295 69 122 326 335 332
240 235 229 225 218 213 213 220 212 215 210 212 203 197 185 164 157 163 173 176 179 177 184 195 195 200 207 218 224 217 235 240 246 253 260 275 287 300 287 254 18 273 317 325 316
238 235 228 223 219 219 219 216 205 209 210 212 204 198 172 167 167 170 179 183 185 183 186 190 189 192 201 210 223 230 245 248 246 255 263 279 297 321 292 306 281 294 298 296 292
234 233 228 221 219 221 216 209 199 207 208 203 203 199 185 182 182 176 183 188 187 192 189 185 188 195 203 208 224 236 250 255 262 271 281 285 295 298 285 293 301 302 297 285 286
231 230 228 221 220 219 211 206 200 206 211 198 201 200 188 187 181 170 178 182 185 185 188 183 192 201 210 220 228 240 254 266 270 276 279 284 293 294 285 273 275 281 287 285 285
Height
5899 5900 5902 5903 5904 5906 5907 5908 5910 5911 5912 5914 5915 5916 5917 5918 5918 5920 5921 5924 5924 5925 5926 5927 5928 5929 5931 5932 5933 5933 5933 5932 5931 5930 5930 5929 5927 5926 5925 5922 5921 5920 5919 5918 5917
5895 5897 5899 5901 5902 5903 5905 5906 5908 5909 5910 5912 5913 5914 5915 5916 5917 5918 5921 5921 5923 5923 5925 5926 5927 5929 5930 5932 5933 5934 5933 5932 5931 5932 5931 5931 5930 5926 5926 5923 5921 5919 5919 5917 5916
5892 5893 5895 5897 5898 5900 5902 5904 5905 5907 5909 5910 5911 5912 5913 5914 5915 5917 5919 5920 5922 5923 5924 5925 5927 5929 5930 5932 5933 5934 5934 5933 5932 5931 5933 5932 5931 5928 5927 5924 5922 5919 5918 5917 5915
5888 5890 5891 5893 5895 5896 5898 5900 5902 5904 5906 5907 5909 5910 5911 5912 5914 5916 5917 5918 5920 5922 5923 5924 5926 5928 5930 5932 5933 5935 5934 5934 5934 5933 5933 5933 5932 5931 5928 5925 5923 5920 5917 5915 5913
5884 5886 5887 5889 5890 5892 5894 5896 5899 5901 5903 5905 5906 5908 5909 5910 5911 5913 5915 5917 5918 5919 5921 5923 5925 5928 5929 5932 5934 5935 5935 5936 5935 5935 5933 5934 5933 5931 5929 5926 5924 5921 5917 5915 5912
5879 5881 5883 5884 5886 5888 5889 5891 5894 5897 5899 5901 5903 5905 5907 5907 5908 5910 5912 5914 5916 5918 5919 5922 5924 5927 5929 5931 5934 5935 5936 5936 5936 5935 5934 5933 5933 5931 5931 5928 5926 5922 5919 5916 5913
5875 5877 5878 5879 5881 5883 5885 5887 5889 5892 5895 5897 5899 5901 5903 5903 5906 5907 5909 5911 5913 5916 5918 5921 5923 5926 5928 5931 5934 5936 5936 5935 5935 5935 5934 5934 5935 5933 5932 5929 5927 5924 5921 5917 5914
5872 5873 5874 5876 5877 5878 5880 5882 5885 5887 5890 5893 5894 5896 5898 5902 5902 5903 5906 5909 5911 5914 5916 5919 5922 5925 5927 5930 5933 5934 5935 5935 5935 5936 5935 5936 5936 5934 5934 5930 5928 5925 5922 5919 5916
5868 5869 5870 5872 5873 5874 5875 5877 5880 5882 5885 5887 5890 5892 5895 5897 5898 5900 5903 5906 5909 5911 5914 5917 5921 5923 5927 5929 5932 5933 5934 5934 5935 5935 5935 5935 5935 5934 5934 5932 5929 5927 5924 5920 5917
5863 5865 5866 5867 5869 5870 5871 5872 5874 5877 5880 5882 5885 5889 5891 5893 5893 5897 5900 5902 5906 5907 5911 5915 5918 5922 5925 5928 5931 5932 5933 5934 5936 5936 5935 5934 5934 5933 5933 5932 5930 5928 5925 5922 5919
5859 5860 5861 5862 5864 5865 5867 5868 5870 5872 5873 5877 5880 5882 5886 5888 5889 5893 5896 5899 5903 5905 5906 5912 5916 5919 5923 5926 5929 5931 5932 5934 5934 5934 5934 5933 5932 5932 5932 5931 5929 5927 5925 5922 5920
5854 5854 5855 5856 5858 5860 5862 5863 5864 5866 5868 5871 5874 5877 5880 5883 5884 5888 5892 5897 5899 5901 5904 5910 5913 5917 5920 5924 5927 5930 5931 5932 5933 5933 5933 5932 5931 5931 5931 5930 5929 5927 5925 5922 5920
5848 5849 5850 5850 5853 5855 5857 5858 5859 5861 5863 5866 5868 5871 5876 5879 5880 5884 5888 5892 5895 5898 5903 5907 5910 5913 5918 5922 5926 5928 5930 5930 5931 5932 5932 5931 5931 5930 5930 5929 5928 5926 5924 5923 5920
5842 5843 5844 5846 5850 5850 5852 5853 5854 5856 5859 5862 5864 5867 5871 5873 5875 5879 5884 5888 5891 5895 5899 5903 5907 5910 5915 5919 5923 5926 5926 5929 5930 5930 5930 5930 5930 5929 5928 5928 5927 5925 5923 5922 5920
5837 5838 5839 5841 5844 5845 5848 5848 5850 5853 5855 5857 5859 5862 5866 5869 5871 5874 5879 5882 5886 5890 5896 5901 5902 5907 5911 5917 5921 5924 5925 5927 5928 5928 5928 5928 5927 5927 5927 5926 5926 5924 5921 5920 5918
5832 5832 5834 5837 5838 5840 5842 5844 5846 5849 5848 5850 5852 5856 5860 5862 5866 5869 5875 5878 5882 5885 5890 5895 5900 5904 5911 5914 5919 5921 5923 5925 5926 5926 5926 5927 5927 5926 5925 5924 5922 5921 5919 5918 5916
5826 5826 5828 5831 5834 5835 5837 5839 5842 5841 5844 5846 5848 5851 5854 5856 5861 5865 5870 5874 5877 5881 5885 5893 5898 5904 5909 5913 5916 5920 5922 5923 5924 5924 5925 5924 5925 5925 5924 5922 5920 5918 5916 5914 5916
5820 5821 5823 5826 5828 5830 5832 5835 5836 5837 5839 5842 5844 5847 5850 5852 5856 5860 5864 5869 5873 5878 5884 5889 5895 5899 5906 5911 5915 5918 5920 5921 5921 5921 5923 5921 5922 5924 5922 5921 5919 5917 5913 5911 5913
5814 5815 5817 5820 5823 5825 5828 5830 5830 5833 5836 5838 5840 5843 5845 5848 5852 5856 5860 5865 5870 5875 5880 5885 5892 5898 5904 5908 5912 5915 5917 5918 5918 5918 5919 5919 5921 5920 5919 5918 5915 5913 5910 5909 5910
5808 5809 5811 5814 5817 5820 5823 5825 5827 5829 5832 5834 5837 5840 5842 5845 5848 5851 5855 5860 5866 5870 5877 5883 5891 5896 5901 5906 5909 5912 5915 5916 5915 5916 5916 5917 5918 5918 5917 5914 5911 5909 5910 5909 5908
5802 5804 5805 5808 5811 5815 5819 5820 5822 5825 5829 5832 5835 5837 5839 5841 5844 5848 5852 5857 5862 5868 5873 5880 5888 5894 5899 5903 5906 5909 5911 5912 5913 5913 5913 5915 5917 5915 5914 5912 5910 5909 5908 5908 5908
5796 5798 5800 5803 5807 5810 5814 5815 5818 5822 5826 5830 5832 5833 5835 5838 5840 5844 5848 5853 5859 5865 5871 5878 5885 5891 5896 5900 5903 5905 5908 5909 5910 5911 5912 5912 5915 5912 5910 5908 5906 5906 5907 5906 5906
5789 5792 5795 5798 5802 5807 5810 5812 5817 5821 5825 5828 5830 5831 5833 5836 5841 5843 5847 5851 5855 5862 5867 5875 5881 5888 5894 5898 5901 5903 5905 5906 5908 5909 5910 5911 5912 5909 5908 5907 5904 5906 5907 5905 5903
5784 5787 5790 5793 5798 5802 5806 5809 5814 5818 5822 5826 5828 5830 5833 5837 5840 5843 5847 5850 5855 5860 5867 5874 5881 5888 5893 5897 5900 5901 5903 5904 5905 5906 5907 5908 5909 5906 5902 5903 5905 5906 5904 5903 5902
5777 5781 5785 5789 5793 5797 5801 5805 5810 5815 5820 5823 5827 5829 5833 5837 5840 5844 5846 5849 5853 5858 5862 5869 5876 5884 5890 5894 5896 5898 5899 5900 5901 5902 5903 5903 5904 5904 5899 5899 5902 5903 5901 5900 5898
5771 5776 5779 5784 5788 5792 5796 5800 5806 5812 5817 5821 5825 5828 5833 5837 5840 5843 5846 5850 5854 5856 5861 5868 5874 5881 5887 5890 5892 5894 5895 5896 5897 5897 5898 5898 5899 5899 5899 5898 5897 5898 5896 5894 5892
5764 5769 5773 5778 5782 5787 5791 5795 5801 5807 5812 5819 5822 5828 5832 5835 5839 5843 5846 5850 5854 5859 5865 5870 5875 5880 5884 5887 5889 5890 5891 5891 5893 5892 5892 5892 5893 5892 5891 5892 5892 5892 5891 5888 5887